This demonstration page uses our WeatherBlox Daily Observations layout. Learn more.

Left ArrowRight Arrow

41.86663, -103.66717

Hourly Observations for June 13, 2020

Temp ( °F °C ) Dew Point ( °F °C ) Humidity (%) Winds ( mph kmh ) Pressure ( in mb ) Visibility ( mi km ) Precip ( " mm )
12:53 am 00:53 Clear 67 19.4 49 9.4 53 53 ESE 8 13 30.00 1016 10 16 0.00 0.00
1:53 am 01:53 Clear 70 21.1 48 8.9 46 46 SE 16 26 29.98 1015 10 16 0.00 0.00
2:53 am 02:53 Clear 69 20.6 48 8.9 47 47 SSE 15 24 29.96 1015 10 16 0.00 0.00
3:53 am 03:53 Clear 62 16.7 50 10 65 65 ESE 13 20 29.95 1014 10 16 0.00 0.00
4:53 am 04:53 Clear 61 16.1 51 10.6 70 70 ESE 13 20 29.95 1014 10 16 0.00 0.00
5:53 am 05:53 Sunny 60 15.6 52 11.1 75 75 ESE 9 15 29.95 1014 10 16 0.00 0.00
6:53 am 06:53 Sunny 63 17.2 54 12.2 73 73 undefined N/A 29.95 1014 10 16 0.00 0.00
7:53 am 07:53 Sunny 69 20.6 55 12.8 61 61 ESE 10 17 29.93 1014 10 16 0.00 0.00
8:53 am 08:53 Sunny 73 22.8 54 12.2 51 51 SE 13 20 29.92 1013 10 16 0.00 0.00
9:53 am 09:53 Sunny 79 26.1 53 11.7 41 41 SE 14 22 29.89 1012 10 16 0.00 0.00
10:53 am 10:53 Sunny 85 29.4 48 8.9 28 28 SSE 18 30 29.86 1011 10 16 0.00 0.00
11:53 am 11:53 Sunny 90 32.2 48 8.9 24 24 SE 15 24 29.83 1010 10 16 0.00 0.00
12:53 pm 12:53 Sunny 92 33.3 46 7.8 21 21 SE 22 35 29.80 1009 10 16 0.00 0.00
1:53 pm 13:53 Sunny 93 33.9 47 8.3 21 21 ESE 23 37 29.75 1008 10 16 0.00 0.00
2:53 pm 14:53 Sunny 94 34.4 47 8.3 20 20 ESE 24 39 29.72 1007 10 16 0.00 0.00
3:53 pm 15:53 Sunny 94 34.4 49 9.4 21 21 SE 22 35 29.71 1006 10 16 0.00 0.00
4:53 pm 16:53 Sunny 93 33.9 49 9.4 22 22 ESE 23 37 29.68 1005 10 16 0.00 0.00
5:53 pm 17:53 Sunny 89 31.7 53 11.7 29 29 ESE 18 30 29.66 1005 10 16 0.00 0.00
6:53 pm 18:53 Sunny 86 30 53 11.7 32 32 ESE 17 28 29.67 1005 10 16 0.00 0.00
7:53 pm 19:53 Mostly Cloudy 69 20.6 53 11.7 57 57 N 29 46 29.76 1008 9 14 0.00 0.00
8:53 pm 20:53 Partly Cloudy 72 22.2 53 11.7 52 52 NNE 17 28 29.73 1007 10 16 0.00 0.00
9:53 pm 21:53 Mostly Clear 74 23.3 54 12.2 50 50 E 14 22 29.71 1006 10 16 0.00 0.00
10:53 pm 22:53 Clear 76 24.4 54 12.2 47 47 SSE 8 13 29.69 1005 10 16 0.00 0.00
11:53 pm 23:53 Clear 70 21.1 55 12.8 59 59 ENE 5 7 29.67 1005 10 16 0.00 0.00

Powered by AerisWeather